Info for pilots

Image

Airfield Info:

EBUL
N51 08.7 - E003 28.6
ELEV 95' / 29m
RWY 07 / 25
799m * 45m (CIV) - 2980m (MIL)
Ursel Radio 135.130
Tel Aero Club Brugge : +32(0)9 374 25 75
Tel Vliegclub Ursel : +32(0)9 374 12 90

Operational Hours
FRI: 14h00LT - SS+30 MIN
SAT, SUN and HOL: TKOF and LDG: 10h00LT - SS+30 MIN
After 20h00LT to SS+30 MIN: only LDG allowed (PN)

Local Traffic Regulations
The use of the AD is subject to PPR from the OPR;
AD given in concession to the CIV club outside MIL ACT;
Solo training flights can only be performed after two reconnaissance flights with instructor. The solo training flight must be performed within six weeks after the first reconnaissance flight;
Jet aircraft operations not allowed.

Obstacles:
trees between 10M AGL and 22M AGL, caution when crosswind:
North of the RWY, 75M from CL, along the whole length of the RWY;
South of the RWY, 75M from CL, and at THR RWY 25 from THR RWY 07 to 140M east of THR RWY 07



Image

Image

Watch out!

Flight Procedures
RWY 07 and 25 left hand circuit, 1.200 FT QNH

Image

Taxi procedures:
RWY 07 (TKOF):
taxi on the north side of the RWY to the HLDG position of RWY 07

RWY 07 (LDG):
after landing roll out to the second intersection (THR RWY 25), turn left, turn left again, taxi via the TWY to the first intersection, turn left, cross the RWY (check for landing ACFT), taxi on the south side of the RWY to the AD reporting office

RWY 25 (TKOF):
taxi on the north side of the first intersection, turn left, next turn right, taxi via the TWY to the second intersection, turn right, taxi to the HLDG of RWY 25

RWY 25 (LDG):
after landing roll out to the end of the RWY, taxi on the south side of the RWY to the AD reporting office.





Image

Taxi & Circuit?

Image
Image
Image
Image

Current Metars - Auto refresh

EBOS - Oostende
2019/10/23 20:50 EBOS 232050Z 10004KT 3200 BR NSC 12/11 Q1008 TEMPO 2500 BR


EBAW - Antwerpen
2019/10/23 20:50 EBAW 232050Z VRB02KT CAVOK 12/11 Q1008 NOSIG


EBBR - Brussel
2019/10/23 20:50 EBBR 232050Z 03002KT CAVOK 12/12 Q1008 NOSIG

Source : NOAA.GOV

Current TAFs - Auto refresh

EBOS - Oostende
2019/10/23 18:27 TAF EBOS 231720Z 2318/2424 11006KT 6000 NSC TEMPO 2318/2406 3200 BR BECMG 2320/2322 17011KT BECMG 2416/2418 23013KT

EBAW - Antwerpen
2019/10/23 21:27 TAF TAF EBAW 232010Z 2321/2406 15005KT CAVOK PROB30 TEMPO 2321/2324 4500 BR

EBBR - Brussel
2019/10/23 18:27 TAF TAF EBBR 231720Z 2318/2424 10006KT CAVOK BECMG 2319/2321 17010KT BECMG 2416/2418 21014KT

Source : NOAA.GOV
Image

Webcam

Direction runway 07 :